,,Stat6,,Stat2,,Stat8,,Stat9,,Stat10,,Wind1,,Wind1,
time,status,PA1M_AVG,status,PR1M_SUM,status,RH1M_AVG,status,SR1M_AVG,status,TA1M_AVG,status,W1dAve1m,status,W1sAve1m,
2004-04-08, 00:00:00,VALID,920.775,VALID,0,VALID,100,VALID,0.0849042,VALID,19.1863,VALID,30,VALID,1.13406,
2004-04-08, 00:01:00,VALID,920.773,VALID,0,VALID,100,VALID,0.0509425,VALID,19.1473,VALID,22,VALID,1.13027,
2004-04-08, 00:02:00,VALID,920.768,VALID,0,VALID,100,VALID,-0.0339617,VALID,19.1577,VALID,22,VALID,1.12481,
2004-04-08, 00:03:00,VALID,920.759,VALID,0,VALID,100,VALID,-0.101885,VALID,19.1426,VALID,28,VALID,1.07776,
2004-04-08, 00:04:00,VALID,920.75,VALID,0,VALID,100,VALID,-0.0339617,VALID,19.1426,VALID,25,VALID,0.88058,
2004-04-08, 00:05:00,VALID,920.725,VALID,0,VALID,100,VALID,-0.0509425,VALID,19.1227,VALID,24,VALID,1.01007,
2004-04-08, 00:06:00,VALID,920.706,VALID,0,VALID,100,VALID,-0.101885,VALID,19.146,VALID,14,VALID,1.14139,
2004-04-08, 00:07:00,VALID,920.71,VALID,0,VALID,100,VALID,-0.101885,VALID,19.1557,VALID,20,VALID,0.901296,
2004-04-08, 00:08:00,VALID,920.685,VALID,0,VALID,100,VALID,-0.0679233,VALID,19.1689,VALID,9,VALID,0.946221,
2004-04-08, 00:09:00,VALID,920.678,VALID,0,VALID,100,VALID,-0.0169808,VALID,19.1714,VALID,16,VALID,0.635653,
2004-04-08, 00:10:00,VALID,920.664,VALID,0,VALID,100,VALID,-0.0169808,VALID,19.1746,VALID,17,VALID,0.885417,
2004-04-08, 00:11:00,VALID,920.656,VALID,0,VALID,100,VALID,-0.0339617,VALID,19.1811,VALID,19,VALID,0.989281,
2004-04-08, 00:12:00,VALID,920.665,VALID,0,VALID,100,VALID,-0.0509425,VALID,19.1781,VALID,21,VALID,1.07722,
2004-04-08, 00:13:00,VALID,920.657,VALID,0,VALID,100,VALID,-0.0169808,VALID,19.191,VALID,18,VALID,0.980564,
2004-04-08, 00:14:00,VALID,920.661,VALID,0,VALID,100,VALID,-0.0509425,VALID,19.1841,VALID,25,VALID,0.931176,
2004-04-08, 00:15:00,VALID,920.658,VALID,0,VALID,100,VALID,-0.0339617,VALID,19.1975,VALID,23,VALID,0.831321,
2004-04-08, 00:16:00,VALID,920.661,VALID,0,VALID,100,VALID,-0.0679233,VALID,19.1945,VALID,25,VALID,0.630996,
2004-04-08, 00:17:00,VALID,920.664,VALID,0,VALID,100,VALID,0,VALID,19.1771,VALID,25,VALID,0.809048,
2004-04-08, 00:18:00,VALID,920.664,VALID,0,VALID,100,VALID,-0.0169808,VALID,19.1741,VALID,24,VALID,0.697351,
2004-04-08, 00:19:00,VALID,920.652,VALID,0,VALID,100,VALID,0,VALID,19.1707,VALID,23,VALID,0.593395,
2004-04-08, 00:20:00,VALID,920.646,VALID,0,VALID,100,VALID,0,VALID,19.1771,VALID,23,VALID,0.595749,
2004-04-08, 00:21:00,VALID,920.64,VALID,0,VALID,100,VALID,0,VALID,19.1543,VALID,23,VALID,0.7141,
2004-04-08, 00:22:00,VALID,920.628,VALID,0,VALID,100,VALID,0.0169808,VALID,19.1548,VALID,23,VALID,0.728016,
2004-04-08, 00:23:00,VALID,920.614,VALID,0,VALID,100,VALID,0,VALID,19.1483,VALID,23,VALID,0.517442,
2004-04-08, 00:24:00,VALID,920.61,VALID,0,VALID,100,VALID,0.0169808,VALID,19.1545,VALID,28,VALID,0.609756,
2004-04-08, 00:25:00,VALID,920.601,VALID,0,VALID,100,VALID,-0.0169808,VALID,19.1515,VALID,39,VALID,0.537791,
2004-04-08, 00:26:00,VALID,920.584,VALID,0,VALID,100,VALID,0,VALID,19.1418,VALID,39,VALID,0.574033,
2004-04-08, 00:27:00,VALID,920.576,VALID,0,VALID,100,VALID,0,VALID,19.1381,VALID,39,VALID,0.40407,
2004-04-08, 00:28:00,VALID,920.566,VALID,0,VALID,100,VALID,0,VALID,19.1448,VALID,39,VALID,0.519176,
2004-04-08, 00:29:00,VALID,920.543,VALID,0,VALID,100,VALID,0,VALID,19.1314,VALID,39,VALID,0.66353,
2004-04-08, 00:30:00,VALID,920.527,VALID,0,VALID,100,VALID,0,VALID,19.1284,VALID,40,VALID,0.700945,
2004-04-08, 00:31:00,VALID,920.508,VALID,0,VALID,100,VALID,-0.0169808,VALID,19.1351,VALID,40,VALID,0.691501,
2004-04-08, 00:32:00,VALID,920.498,VALID,0,VALID,100,VALID,0,VALID,19.1287,VALID,40,VALID,0.699826,
2004-04-08, 00:33:00,VALID,920.476,VALID,0,VALID,100,VALID,0,VALID,19.1257,VALID,38,VALID,0.714026,
2004-04-08, 00:34:00,VALID,920.455,VALID,0,VALID,100,VALID,-0.0169808,VALID,19.1222,VALID,38,VALID,0.607376,
2004-04-08, 00:35:00,VALID,920.45,VALID,0.2,VALID,100,VALID,0,VALID,19.1192,VALID,36,VALID,0.499273,
2004-04-08, 00:36:00,VALID,920.428,VALID,0,VALID,100,VALID,0,VALID,19.1123,VALID,27,VALID,0.517857,
2004-04-08, 00:37:00,VALID,920.403,VALID,0,VALID,100,VALID,0,VALID,19.1091,VALID,31,VALID,0.542333,
2004-04-08, 00:38:00,VALID,920.378,VALID,0,VALID,100,VALID,0.0169808,VALID,19.116,VALID,33,VALID,0.440104,
2004-04-08, 00:39:00,VALID,920.364,VALID,0,VALID,100,VALID,0.0169808,VALID,19.0957,VALID,33,VALID,0.166371,
2004-04-08, 00:40:00,VALID,920.354,VALID,0,VALID,100,VALID,0,VALID,19.1121,VALID,33,VALID,0.0857599,
2004-04-08, 00:41:00,VALID,920.328,VALID,0,VALID,100,VALID,0.0169808,VALID,19.1188,VALID,33,VALID,0.195135,
2004-04-08, 00:42:00,VALID,920.299,VALID,0,VALID,100,VALID,0,VALID,19.122,VALID,33,VALID,0.087843,
2004-04-08, 00:43:00,VALID,920.288,VALID,0,VALID,100,VALID,0.0169808,VALID,19.1024,VALID,33,VALID,0.33576,
2004-04-08, 00:44:00,VALID,920.269,VALID,0,VALID,100,VALID,0.0169808,VALID,19.0862,VALID,33,VALID,0.18859,
2004-04-08, 00:45:00,VALID,920.25,VALID,0,VALID,100,VALID,-0.0169808,VALID,19.1063,VALID,33,VALID,0.040516,
2004-04-08, 00:46:00,VALID,920.226,VALID,0,VALID,100,VALID,0,VALID,19.1063,VALID,10,VALID,0.228423,
2004-04-08, 00:47:00,VALID,920.214,VALID,0,VALID,100,VALID,0,VALID,19.0872,VALID,306,VALID,0.279297,
2004-04-08, 00:48:00,VALID,920.185,VALID,0,VALID,100,VALID,0,VALID,19.0773,VALID,306,VALID,0.0888889,
2004-04-08, 00:49:00,VALID,920.157,VALID,0,VALID,100,VALID,0,VALID,19.0902,VALID,306,VALID,0.132118,
2004-04-08, 00:50:00,VALID,920.125,VALID,0,VALID,100,VALID,0,VALID,19.0872,VALID,306,VALID,0.219271,
2004-04-08, 00:51:00,VALID,920.084,VALID,0,VALID,100,VALID,0,VALID,19.0614,VALID,306,VALID,0.274926,
2004-04-08, 00:52:00,VALID,920.052,VALID,0,VALID,100,VALID,-0.0169808,VALID,19.0577,VALID,306,VALID,0.0834604,
2004-04-08, 00:53:00,VALID,920.03,VALID,0,VALID,100,VALID,0,VALID,19.0577,VALID,306,VALID,0.228198,
2004-04-08, 00:54:00,VALID,920.013,VALID,0,VALID,100,VALID,-0.0169808,VALID,19.0514,VALID,306,VALID,0.252668,
2004-04-08, 00:55:00,VALID,919.998,VALID,0,VALID,100,VALID,0,VALID,19.0577,VALID,306,VALID,0.108073,
2004-04-08, 00:56:00,VALID,919.984,VALID,0,VALID,100,VALID,0,VALID,19.0574,VALID,306,VALID,0.0138081,
2004-04-08, 00:57:00,VALID,919.963,VALID,0,VALID,100,VALID,-0.0169808,VALID,19.0902,VALID,306,VALID,0.03125,
2004-04-08, 00:58:00,VALID,919.945,VALID,0,VALID,100,VALID,0,VALID,19.0835,VALID,306,VALID,0,
2004-04-08, 00:59:00,VALID,919.932,VALID,0,VALID,100,VALID,0,VALID,19.0969,VALID,306,VALID,0,
2004-04-08, 01:00:00,VALID,919.914,VALID,0,VALID,100,VALID,-0.0169808,VALID,19.0837,VALID,306,VALID,0,
2004-04-08, 01:01:00,VALID,919.896,VALID,0,VALID,100,VALID,0,VALID,19.087,VALID,306,VALID,0,
2004-04-08, 01:02:00,VALID,919.867,VALID,0,VALID,100,VALID,-0.0849042,VALID,19.0884,VALID,306,VALID,0,
2004-04-08, 01:03:00,VALID,919.838,VALID,0,VALID,100,VALID,-0.101885,VALID,19.0914,VALID,306,VALID,0,
2004-04-08, 01:04:00,VALID,919.812,VALID,0,VALID,100,VALID,-0.101885,VALID,19.0879,VALID,306,VALID,0,
2004-04-08, 01:05:00,VALID,919.792,VALID,0,VALID,100,VALID,-0.101885,VALID,19.0752,VALID,306,VALID,0.0374273,
2004-04-08, 01:06:00,VALID,919.787,VALID,0,VALID,100,VALID,-0.0849042,VALID,19.0593,VALID,306,VALID,0.254439,
2004-04-08, 01:07:00,VALID,919.773,VALID,0,VALID,100,VALID,-0.0849042,VALID,19.0432,VALID,306,VALID,0.0200639,
2004-04-08, 01:08:00,VALID,919.747,VALID,0,VALID,100,VALID,-0.0849042,VALID,19.0367,VALID,306,VALID,0,
2004-04-08, 01:09:00,VALID,919.732,VALID,0,VALID,100,VALID,-0.0849042,VALID,19.0397,VALID,306,VALID,0,
2004-04-08, 01:10:00,VALID,919.711,VALID,0,VALID,100,VALID,-0.0679233,VALID,19.0586,VALID,306,VALID,0,
2004-04-08, 01:11:00,VALID,919.69,VALID,0,VALID,100,VALID,-0.101885,VALID,19.0628,VALID,306,VALID,0,
2004-04-08, 01:12:00,VALID,919.68,VALID,0,VALID,100,VALID,-0.0679233,VALID,19.0328,VALID,306,VALID,0,
2004-04-08, 01:13:00,VALID,919.659,VALID,0,VALID,100,VALID,-0.0849042,VALID,19.0432,VALID,306,VALID,0,
2004-04-08, 01:14:00,VALID,919.634,VALID,0,VALID,100,VALID,-0.0849042,VALID,19.0496,VALID,306,VALID,0,
2004-04-08, 01:15:00,VALID,919.608,VALID,0,VALID,100,VALID,-0.101885,VALID,19.0593,VALID,306,VALID,0,
2004-04-08, 01:16:00,VALID,919.592,VALID,0,VALID,100,VALID,-0.101885,VALID,19.033,VALID,306,VALID,0,
2004-04-08, 01:17:00,VALID,919.569,VALID,0,VALID,100,VALID,0,VALID,19.0095,VALID,306,VALID,0,
2004-04-08, 01:18:00,VALID,919.535,VALID,0,VALID,100,VALID,0.0169808,VALID,19.0032,VALID,306,VALID,0,
2004-04-08, 01:19:00,VALID,919.519,VALID,0,VALID,100,VALID,0,VALID,19.0003,VALID,306,VALID,0,
2004-04-08, 01:20:00,VALID,919.482,VALID,0,VALID,100,VALID,0,VALID,19.0032,VALID,306,VALID,0,
2004-04-08, 01:21:00,VALID,919.447,VALID,0,VALID,100,VALID,0,VALID,18.9861,VALID,306,VALID,0,
2004-04-08, 01:22:00,VALID,919.428,VALID,0,VALID,100,VALID,0,VALID,19.006,VALID,306,VALID,0,
2004-04-08, 01:23:00,VALID,919.393,VALID,0,VALID,100,VALID,0.0169808,VALID,19.0159,VALID,306,VALID,0,
2004-04-08, 01:24:00,VALID,919.365,VALID,0,VALID,100,VALID,0.0169808,VALID,18.9899,VALID,306,VALID,0,
2004-04-08, 01:25:00,VALID,919.333,VALID,0,VALID,100,VALID,0,VALID,18.9836,VALID,306,VALID,0,
2004-04-08, 01:26:00,VALID,919.3,VALID,0,VALID,100,VALID,0.0169808,VALID,18.9772,VALID,306,VALID,0,
2004-04-08, 01:27:00,VALID,919.272,VALID,0,VALID,100,VALID,0,VALID,18.9742,VALID,306,VALID,0,
2004-04-08, 01:28:00,VALID,919.253,VALID,0,VALID,100,VALID,-0.0169808,VALID,18.9546,VALID,306,VALID,0,
2004-04-08, 01:29:00,VALID,919.22,VALID,0,VALID,100,VALID,0.0339617,VALID,18.9546,VALID,306,VALID,0,
2004-04-08, 01:30:00,VALID,919.203,VALID,0,VALID,100,VALID,0,VALID,18.9675,VALID,306,VALID,0,
2004-04-08, 01:31:00,VALID,919.194,VALID,0,VALID,100,VALID,0,VALID,18.9739,VALID,306,VALID,0,
2004-04-08, 01:32:00,VALID,919.185,VALID,0,VALID,100,VALID,-0.0679233,VALID,18.9945,VALID,306,VALID,0,
2004-04-08, 01:33:00,VALID,919.173,VALID,0,VALID,100,VALID,-0.0849042,VALID,18.9948,VALID,306,VALID,0,
2004-04-08, 01:34:00,VALID,919.168,VALID,0.2,VALID,100,VALID,-0.101885,VALID,18.9918,VALID,306,VALID,0,
2004-04-08, 01:35:00,VALID,919.157,VALID,0,VALID,100,VALID,-0.101885,VALID,18.9918,VALID,306,VALID,0,
2004-04-08, 01:36:00,VALID,919.144,VALID,0,VALID,100,VALID,-0.101885,VALID,18.9918,VALID,359,VALID,0.163352,
2004-04-08, 01:37:00,VALID,919.153,VALID,0,VALID,100,VALID,-0.0849042,VALID,19.0077,VALID,83,VALID,0.455915,
2004-04-08, 01:38:00,VALID,919.161,VALID,0,VALID,100,VALID,-0.101885,VALID,19.0305,VALID,74,VALID,0.713068,
2004-04-08, 01:39:00,VALID,919.164,VALID,0,VALID,100,VALID,-0.118866,VALID,19.0109,VALID,65,VALID,0.992898,
2004-04-08, 01:40:00,VALID,919.175,VALID,0,VALID,100,VALID,-0.0849042,VALID,18.9977,VALID,52,VALID,1.04669,
2004-04-08, 01:41:00,VALID,919.191,VALID,0,VALID,100,VALID,-0.101885,VALID,18.9945,VALID,65,VALID,1.01358,
2004-04-08, 01:42:00,VALID,919.184,VALID,0,VALID,100,VALID,-0.101885,VALID,19.0077,VALID,51,VALID,1.10973,
2004-04-08, 01:43:00,VALID,919.195,VALID,0,VALID,100,VALID,-0.0849042,VALID,18.9913,VALID,46,VALID,1.3125,
2004-04-08, 01:44:00,VALID,919.189,VALID,0,VALID,100,VALID,-0.0509425,VALID,19.0141,VALID,43,VALID,1.36537,
2004-04-08, 01:45:00,VALID,919.184,VALID,0,VALID,100,VALID,-0.0849042,VALID,19.0171,VALID,39,VALID,1.21361,
2004-04-08, 01:46:00,VALID,919.16,VALID,0.2,VALID,100,VALID,-0.0849042,VALID,19.04,VALID,54,VALID,1.08519,
2004-04-08, 01:47:00,VALID,919.149,VALID,0,VALID,100,VALID,-0.0849042,VALID,19.0429,VALID,61,VALID,1.1557,
2004-04-08, 01:48:00,VALID,919.143,VALID,0,VALID,100,VALID,-0.101885,VALID,19.0688,VALID,61,VALID,1.16611,
2004-04-08, 01:49:00,VALID,919.138,VALID,0,VALID,100,VALID,-0.0679233,VALID,19.0658,VALID,51,VALID,1.1263,
2004-04-08, 01:50:00,VALID,919.116,VALID,0,VALID,100,VALID,-0.118866,VALID,19.0688,VALID,48,VALID,1.11133,
2004-04-08, 01:51:00,VALID,919.109,VALID,0,VALID,100,VALID,-0.118866,VALID,19.0693,VALID,69,VALID,0.897879,
2004-04-08, 01:52:00,VALID,919.104,VALID,0,VALID,100,VALID,-0.0849042,VALID,19.0725,VALID,67,VALID,0.655859,
2004-04-08, 01:53:00,VALID,919.087,VALID,0,VALID,100,VALID,-0.0849042,VALID,19.0626,VALID,62,VALID,0.967578,
2004-04-08, 01:54:00,VALID,919.08,VALID,0.2,VALID,100,VALID,-0.101885,VALID,19.0785,VALID,53,VALID,0.804688,
2004-04-08, 01:55:00,VALID,919.068,VALID,0,VALID,100,VALID,-0.101885,VALID,19.0856,VALID,59,VALID,0.819041,
2004-04-08, 01:56:00,VALID,919.051,VALID,0,VALID,100,VALID,-0.0849042,VALID,19.0817,VALID,68,VALID,0.71875,
2004-04-08, 01:57:00,VALID,919.029,VALID,0,VALID,100,VALID,-0.101885,VALID,19.0919,VALID,77,VALID,0.877418,
2004-04-08, 01:58:00,VALID,919.012,VALID,0,VALID,100,VALID,-0.135847,VALID,19.0722,VALID,92,VALID,0.735828,
2004-04-08, 01:59:00,VALID,918.998,VALID,0,VALID,100,VALID,-0.0849042,VALID,19.0695,VALID,96,VALID,0.763338,
2004-04-08, 02:00:01,VALID,918.975,VALID,0,VALID,100,VALID,-0.101885,VALID,19.0727,VALID,100,VALID,0.581555,
2004-04-08, 02:01:00,VALID,918.944,VALID,0.2,VALID,100,VALID,-0.0849042,VALID,19.0725,VALID,103,VALID,0.673242,
2004-04-08, 02:02:00,VALID,918.917,VALID,0,VALID,100,VALID,-0.0679233,VALID,19.0614,VALID,103,VALID,0.300959,
2004-04-08, 02:03:00,VALID,918.89,VALID,0,VALID,100,VALID,-0.0849042,VALID,19.0745,VALID,107,VALID,0.418713,
2004-04-08, 02:04:00,VALID,918.86,VALID,0,VALID,100,VALID,-0.0339617,VALID,19.0671,VALID,112,VALID,0.486923,
2004-04-08, 02:05:00,VALID,918.829,VALID,0,VALID,100,VALID,-0.0339617,VALID,19.0773,VALID,112,VALID,0.460938,
2004-04-08, 02:06:00,VALID,918.8,VALID,0,VALID,100,VALID,-0.0509425,VALID,19.0745,VALID,113,VALID,0.533026,
2004-04-08, 02:07:00,VALID,918.781,VALID,0,VALID,100,VALID,-0.0509425,VALID,19.0773,VALID,113,VALID,0.524709,
2004-04-08, 02:08:01,VALID,918.776,VALID,0,VALID,100,VALID,-0.0509425,VALID,19.071,VALID,113,VALID,0.251645,
2004-04-08, 02:09:00,VALID,918.768,VALID,0,VALID,100,VALID,-0.0339617,VALID,19.071,VALID,113,VALID,0.116477,
2004-04-08, 02:10:00,VALID,918.764,VALID,0,VALID,100,VALID,-0.0679233,VALID,19.0837,VALID,113,VALID,0,
2004-04-08, 02:11:00,VALID,918.752,VALID,0.2,VALID,100,VALID,-0.0169808,VALID,19.0803,VALID,113,VALID,0,
2004-04-08, 02:12:00,VALID,918.741,VALID,0,VALID,100,VALID,-0.0339617,VALID,19.0768,VALID,113,VALID,0,
2004-04-08, 02:13:00,VALID,918.723,VALID,0,VALID,100,VALID,-0.0339617,VALID,19.071,VALID,66,VALID,0,
2004-04-08, 02:14:01,VALID,918.689,VALID,0,VALID,100,VALID,-0.0509425,VALID,19.0385,VALID,35,VALID,0,
2004-04-08, 02:15:00,VALID,918.658,VALID,0,VALID,100,VALID,-0.0339617,VALID,19.0191,VALID,14,VALID,0,
2004-04-08, 02:16:00,VALID,918.619,VALID,0,VALID,100,VALID,0,VALID,19.0032,VALID,9,VALID,0,
2004-04-08, 02:17:00,VALID,918.586,VALID,0,VALID,100,VALID,-0.0339617,VALID,18.9841,VALID,9,VALID,0,
2004-04-08, 02:18:01,VALID,918.562,VALID,0,VALID,100,VALID,0,VALID,18.9806,VALID,359,VALID,0,
2004-04-08, 02:19:00,VALID,918.521,VALID,0,VALID,100,VALID,-0.0509425,VALID,18.9871,VALID,354,VALID,0,
2004-04-08, 02:20:00,VALID,918.494,VALID,0,VALID,100,VALID,-0.0339617,VALID,18.9806,VALID,354,VALID,0,
2004-04-08, 02:21:01,VALID,918.457,VALID,0,VALID,100,VALID,-0.0509425,VALID,18.9906,VALID,354,VALID,0,
2004-04-08, 02:22:00,VALID,918.424,VALID,0,VALID,100,VALID,-0.0169808,VALID,18.9968,VALID,354,VALID,0,
2004-04-08, 02:23:00,VALID,918.394,VALID,0,VALID,100,VALID,-0.0339617,VALID,18.9973,VALID,354,VALID,0,
2004-04-08, 02:24:00,VALID,918.368,VALID,0,VALID,100,VALID,-0.0339617,VALID,19.0102,VALID,354,VALID,0,
2004-04-08, 02:25:00,VALID,918.344,VALID,0,VALID,100,VALID,0,VALID,19.0003,VALID,354,VALID,0,
2004-04-08, 02:26:00,VALID,918.332,VALID,0,VALID,100,VALID,-0.0679233,VALID,19.0035,VALID,354,VALID,0,
2004-04-08, 02:27:01,VALID,918.318,VALID,0,VALID,100,VALID,-0.0339617,VALID,18.9933,VALID,354,VALID,0,
2004-04-08, 02:28:01,VALID,918.297,VALID,0,VALID,100,VALID,-0.0339617,VALID,19.0025,VALID,354,VALID,0,
2004-04-08, 02:29:00,VALID,918.283,VALID,0,VALID,100,VALID,-0.0169808,VALID,19.0166,VALID,354,VALID,0,
2004-04-08, 02:30:00,VALID,918.268,VALID,0,VALID,100,VALID,-0.0169808,VALID,19.0028,VALID,354,VALID,0,
2004-04-08, 02:31:01,VALID,918.251,VALID,0,VALID,100,VALID,-0.0169808,VALID,19.0065,VALID,354,VALID,0,
2004-04-08, 02:32:00,VALID,918.229,VALID,0,VALID,100,VALID,0.0509425,VALID,18.9958,VALID,354,VALID,0,
2004-04-08, 02:33:00,VALID,918.199,VALID,0,VALID,100,VALID,0.0849042,VALID,18.9884,VALID,354,VALID,0,
2004-04-08, 02:34:00,VALID,918.168,VALID,0,VALID,100,VALID,0.0679233,VALID,18.9954,VALID,354,VALID,0.309524,
2004-04-08, 02:35:01,VALID,918.164,VALID,0,VALID,100,VALID,0.101885,VALID,18.9919,VALID,354,VALID,0.367759,
2004-04-08, 02:36:00,VALID,918.141,VALID,0,VALID,100,VALID,0.118866,VALID,18.9882,VALID,354,VALID,0.293605,
2004-04-08, 02:37:00,VALID,918.128,VALID,0,VALID,100,VALID,0.0849042,VALID,18.9817,VALID,354,VALID,0.298438,
2004-04-08, 02:38:00,VALID,918.106,VALID,0,VALID,100,VALID,0.101885,VALID,18.982,VALID,354,VALID,0.301525,
2004-04-08, 02:39:00,VALID,918.106,VALID,0,VALID,100,VALID,0.0509425,VALID,18.9921,VALID,354,VALID,0.267805,
2004-04-08, 02:40:01,VALID,918.102,VALID,0,VALID,100,VALID,0.0849042,VALID,18.9857,VALID,354,VALID,0.408854,
2004-04-08, 02:41:00,VALID,918.084,VALID,0,VALID,100,VALID,0.0339617,VALID,18.9762,VALID,85,VALID,0.502308,
2004-04-08, 02:42:00,VALID,918.092,VALID,0,VALID,100,VALID,0.101885,VALID,18.9633,VALID,172,VALID,0.599432,
2004-04-08, 02:43:00,VALID,918.089,VALID,0,VALID,100,VALID,0.0509425,VALID,18.9342,VALID,174,VALID,0.617001,
2004-04-08, 02:44:00,VALID,918.085,VALID,0,VALID,100,VALID,0.0849042,VALID,18.9114,VALID,164,VALID,0.577939,
2004-04-08, 02:45:01,VALID,918.082,VALID,0,VALID,100,VALID,0.0679233,VALID,18.9084,VALID,156,VALID,0.246548,
2004-04-08, 02:46:00,VALID,918.072,VALID,0,VALID,100,VALID,0.0849042,VALID,18.8923,VALID,145,VALID,0.42702,
2004-04-08, 02:47:00,VALID,918.08,VALID,0,VALID,100,VALID,0.0679233,VALID,18.9022,VALID,145,VALID,0.620206,
2004-04-08, 02:48:00,VALID,918.071,VALID,0,VALID,100,VALID,0.0339617,VALID,18.8923,VALID,143,VALID,0.659455,
2004-04-08, 02:49:00,VALID,918.066,VALID,0,VALID,100,VALID,0.0509425,VALID,18.8851,VALID,155,VALID,0.737424,
2004-04-08, 02:50:00,VALID,918.064,VALID,0,VALID,100,VALID,0.101885,VALID,18.9017,VALID,149,VALID,0.617746,
2004-04-08, 02:51:00,VALID,918.06,VALID,0,VALID,100,VALID,0.101885,VALID,18.9052,VALID,144,VALID,0.518043,
2004-04-08, 02:52:00,VALID,918.06,VALID,0,VALID,100,VALID,0.101885,VALID,18.9116,VALID,128,VALID,0.739195,
2004-04-08, 02:53:00,VALID,918.06,VALID,0,VALID,100,VALID,0.101885,VALID,18.9047,VALID,125,VALID,0.787305,
2004-04-08, 02:54:01,VALID,918.042,VALID,0,VALID,100,VALID,0.101885,VALID,18.9144,VALID,136,VALID,0.625727,
2004-04-08, 02:55:01,VALID,918.032,VALID,0,VALID,100,VALID,0.0509425,VALID,18.9209,VALID,130,VALID,1.01235,
2004-04-08, 02:56:00,VALID,918.009,VALID,0,VALID,100,VALID,0.101885,VALID,18.9211,VALID,132,VALID,1.12277,
2004-04-08, 02:57:00,VALID,917.992,VALID,0,VALID,100,VALID,0.0679233,VALID,18.9342,VALID,128,VALID,1.35497,
2004-04-08, 02:58:01,VALID,917.97,VALID,0,VALID,100,VALID,0.0679233,VALID,18.9211,VALID,131,VALID,1.45366,
2004-04-08, 02:59:00,VALID,917.96,VALID,0,VALID,100,VALID,0.0509425,VALID,18.931,VALID,132,VALID,0.95476,
2004-04-08, 03:00:00,VALID,917.949,VALID,0,VALID,100,VALID,0.101885,VALID,18.9273,VALID,139,VALID,1.08921,
2004-04-08, 03:01:00,VALID,917.94,VALID,0,VALID,100,VALID,0.0679233,VALID,18.9439,VALID,141,VALID,0.853207,
2004-04-08, 03:02:00,VALID,917.928,VALID,0,VALID,100,VALID,0.0509425,VALID,18.9472,VALID,122,VALID,0.989984,
2004-04-08, 03:03:00,VALID,917.921,VALID,0,VALID,100,VALID,0.0509425,VALID,18.9342,VALID,128,VALID,0.926067,
2004-04-08, 03:04:00,VALID,917.922,VALID,0,VALID,100,VALID,0.0679233,VALID,18.9278,VALID,128,VALID,1.1875,
2004-04-08, 03:05:00,VALID,917.905,VALID,0,VALID,100,VALID,0.0509425,VALID,18.9313,VALID,122,VALID,0.682639,
2004-04-08, 03:06:01,VALID,917.906,VALID,0,VALID,100,VALID,0.101885,VALID,18.9246,VALID,128,VALID,0.74535,
2004-04-08, 03:07:01,VALID,917.892,VALID,0,VALID,100,VALID,0.0509425,VALID,18.938,VALID,123,VALID,1.14824,
2004-04-08, 03:08:00,VALID,917.887,VALID,0,VALID,100,VALID,0.0849042,VALID,18.9305,VALID,129,VALID,1.43471,
2004-04-08, 03:09:00,VALID,917.884,VALID,0.2,VALID,100,VALID,0.0509425,VALID,18.9509,VALID,134,VALID,1.13072,
2004-04-08, 03:10:00,VALID,917.877,VALID,0,VALID,100,VALID,0.0339617,VALID,18.9407,VALID,134,VALID,0.959794,
2004-04-08, 03:11:01,VALID,917.861,VALID,0,VALID,100,VALID,0.0509425,VALID,18.9442,VALID,134,VALID,1.68933,
2004-04-08, 03:12:00,VALID,917.876,VALID,0,VALID,100,VALID,0.0849042,VALID,18.9509,VALID,133,VALID,1.76326,
2004-04-08, 03:13:01,VALID,917.869,VALID,0,VALID,100,VALID,0.0849042,VALID,18.9576,VALID,131,VALID,1.92035,
2004-04-08, 03:14:01,VALID,917.868,VALID,0,VALID,100,VALID,0.0339617,VALID,18.9509,VALID,132,VALID,1.71823,
2004-04-08, 03:15:00,VALID,917.866,VALID,0,VALID,100,VALID,0.0679233,VALID,18.9407,VALID,134,VALID,1.55506,
2004-04-08, 03:16:01,VALID,917.873,VALID,0,VALID,100,VALID,0.0509425,VALID,18.9442,VALID,131,VALID,1.50254,
2004-04-08, 03:17:00,VALID,917.889,VALID,0,VALID,100,VALID,0.0849042,VALID,18.931,VALID,130,VALID,1.54902,
2004-04-08, 03:18:00,VALID,917.888,VALID,0,VALID,100,VALID,0.0849042,VALID,18.9342,VALID,123,VALID,1.15057,
2004-04-08, 03:19:01,VALID,917.883,VALID,0,VALID,100,VALID,0.0679233,VALID,18.9377,VALID,120,VALID,1.46024,
2004-04-08, 03:20:01,VALID,917.881,VALID,0,VALID,100,VALID,0.101885,VALID,18.9377,VALID,132,VALID,1.89226,
2004-04-08, 03:21:00,VALID,917.872,VALID,0,VALID,100,VALID,0.101885,VALID,18.928,VALID,128,VALID,1.66343,
2004-04-08, 03:22:01,VALID,917.873,VALID,0,VALID,100,VALID,0.0679233,VALID,18.9248,VALID,139,VALID,1.20703,
2004-04-08, 03:23:00,VALID,917.866,VALID,0,VALID,100,VALID,0.0679233,VALID,18.9181,VALID,127,VALID,1.44684,
2004-04-08, 03:24:00,VALID,917.865,VALID,0,VALID,100,VALID,0.0679233,VALID,18.9218,VALID,135,VALID,1.74635,
2004-04-08, 03:25:01,VALID,917.867,VALID,0,VALID,100,VALID,0.101885,VALID,18.9216,VALID,112,VALID,1.6132,
2004-04-08, 03:26:01,VALID,917.876,VALID,0,VALID,100,VALID,0.0509425,VALID,18.9278,VALID,127,VALID,1.75618,
2004-04-08, 03:27:00,VALID,917.878,VALID,0,VALID,100,VALID,0.0339617,VALID,18.9246,VALID,129,VALID,1.41864,
2004-04-08, 03:28:00,VALID,917.888,VALID,0,VALID,100,VALID,0.0679233,VALID,18.9179,VALID,123,VALID,1.43732,
2004-04-08, 03:29:01,VALID,917.877,VALID,0,VALID,100,VALID,0.0679233,VALID,18.9313,VALID,125,VALID,1.42188,
2004-04-08, 03:30:01,VALID,917.873,VALID,0,VALID,100,VALID,0.0679233,VALID,18.9345,VALID,131,VALID,2.30941,
2004-04-08, 03:31:00,VALID,917.874,VALID,0,VALID,100,VALID,0.0509425,VALID,18.9345,VALID,136,VALID,1.42754,
2004-04-08, 03:32:00,VALID,917.891,VALID,0,VALID,100,VALID,-0.0339617,VALID,18.9228,VALID,124,VALID,1.39989,
2004-04-08, 03:33:00,VALID,917.873,VALID,0,VALID,100,VALID,-0.0509425,VALID,18.9198,VALID,127,VALID,2.01272,
2004-04-08, 03:34:00,VALID,917.873,VALID,0,VALID,100,VALID,-0.0169808,VALID,18.9126,VALID,132,VALID,1.34375,
2004-04-08, 03:35:01,VALID,917.844,VALID,0,VALID,100,VALID,-0.0339617,VALID,18.9131,VALID,131,VALID,1.40739,
2004-04-08, 03:36:01,VALID,917.846,VALID,0,VALID,100,VALID,-0.0169808,VALID,18.9064,VALID,127,VALID,1.29446,
2004-04-08, 03:37:00,VALID,917.835,VALID,0,VALID,100,VALID,-0.0339617,VALID,18.8875,VALID,131,VALID,1.8105,
2004-04-08, 03:38:00,VALID,917.827,VALID,0,VALID,100,VALID,-0.0339617,VALID,18.8646,VALID,133,VALID,1.75675,
2004-04-08, 03:39:00,VALID,917.814,VALID,0,VALID,100,VALID,0,VALID,18.8684,VALID,133,VALID,1.84859,
2004-04-08, 03:40:01,VALID,917.791,VALID,0,VALID,100,VALID,-0.0509425,VALID,18.8425,VALID,139,VALID,1.82068,
2004-04-08, 03:41:00,VALID,917.771,VALID,0,VALID,100,VALID,-0.0509425,VALID,18.8324,VALID,136,VALID,1.36755,
2004-04-08, 03:42:01,VALID,917.766,VALID,0,VALID,100,VALID,-0.0849042,VALID,18.8428,VALID,139,VALID,1.52253,
2004-04-08, 03:43:00,VALID,917.75,VALID,0,VALID,100,VALID,-0.0169808,VALID,18.8458,VALID,139,VALID,1.57298,